Regional Weather Roundup
Issued by NWS

Home | Current Version | Previous Version | Graphics & Text | Print | Product List | Glossary Off
Versions: 1 2 3 4 5 6 7 8 9 10 11 12 13 14 15 16 17 18 19 20 21 22 23 24 25 26 27 28 29 30 31 32 33 34 35 36 37 38 39 40 41 42 43 44 45 46 47 48 49 50

000
ASUS44 KMEG 290210
RWRTN
TENNESSEE HOURLY STATE WEATHER ROUNDUP
NATIONAL WEATHER SERVICE MEMPHIS TN
900 PM CDT SUN AUG 28 2016

TNZ002-004-019-021-049-052-054-088>092-290300-
WEST TENNESSEE

CITY           SKY/WX    TMP DP  RH WIND       PRES   REMARKS
MEMPHIS INTL   PTCLDY    88  68  51 E5        30.06R HX  91
NWS MEMPHIS      N/A     80 N/A N/A MISG        N/A
JACKSON        CLEAR     79  75  87 CALM      30.08R
DYERSBURG      CLEAR    N/A N/A N/A MISG        N/A
UNION CITY     CLEAR     82  75  78 NE6       30.09R
PARIS          CLEAR     77  73  88 NE3       30.12R
LEXINGTON      CLEAR     77  75  94 NE3       30.09R
$$

TNZ008-025-027-028-033-062-065-066-290300-
NORTH MIDDLE TENNESSEE

CITY           SKY/WX    TMP DP  RH WIND       PRES   REMARKS
NASHVILLE      MOCLDY    82  73  74 NE10      30.14R
CLARKSVILLE    CLEAR     81  72  74 E3        30.12R
COOKEVILLE     CLEAR     73  70  88 N5        30.16R
CROSSVILLE     CLOUDY    70  68  93 VRB6      30.21R
$$

TNZ061-075-076-078-094-096-097-290300-
SOUTH MIDDLE TENNESSEE

CITY           SKY/WX    TMP DP  RH WIND       PRES   REMARKS
FAYETTEVILLE   MOCLDY    77  68  73 E5        30.13R
TULLAHOMA      PTCLDY    75  70  83 NE3       30.16R
WINCHESTER     CLEAR     72  70  94 CALM      30.14S
MCMINNVILLE    MOCLDY    75  75 100 N3        30.14F
COLUMBIA       CLEAR    N/A N/A N/A CALM      30.11R
SHELBYVILLE    CLEAR     79  75  89 CALM      30.14S
$$

TNZ017-018-042-046-047-290300-
NORTHEAST TENNESSEE

CITY           SKY/WX    TMP DP  RH WIND       PRES   REMARKS
TRI CITIES     MOCLDY    77  70  79 CALM      30.18R
ELIZABETHTON   PTCLDY    77  66  69 E5        30.19R
$$

TNZ012-013-036-069-073-074-290300-
CENTRAL EAST TENNESSEE

CITY           SKY/WX    TMP DP  RH WIND       PRES   REMARKS
KNOXVILLE      CLOUDY    77  67  71 N6        30.15R
OAK RIDGE      CLOUDY    73  69  87 CALM      30.17R
GATLINBURG     CLEAR     73  70  88 CALM      30.14R
MORRISTOWN     CLOUDY    75  72  88 SW5       30.16R
$$

TNZ083-085-099-290300-
SOUTHEAST TENNESSEE

CITY           SKY/WX    TMP DP  RH WIND       PRES   REMARKS
CHATTANOOGA    MOCLDY    76  73  91 CALM      30.13R
$$

SKY/WX REPORTED AS FAIR MEANS FEW OR NO CLOUDS BELOW
12 THOUSAND FEET.





USA.gov is the U.S. government's official web portal to all federal, state and local government web resources and services.